• In Belgium
  • List of Countries
  • For 7 days
  • Water Temperature
  • Satellite Maps
  • Weather Map
  • Weather Widgets
  • user-avatar
    Login

    Hourly Weather Tibissa

    Today, 25 November, Saturday

    Time Temperature Precipitation Wind Pressure Humidity
    00:00 +10°C° 0 mm 1 mps 688 mmHg 41%
    01:00 +10°C° 0 mm 1 mps 688 mmHg 41%
    02:00 +9°C° 0 mm 1 mps 688 mmHg 40%
    03:00 +9°C° 0 mm 1 mps 688 mmHg 40%
    04:00 +8°C° 0 mm 2 mps 687 mmHg 39%
    05:00 +8°C° 0 mm 2 mps 687 mmHg 38%
    06:00 +8°C° 0 mm 2 mps 688 mmHg 37%
    07:00 +8°C° 0 mm 2 mps 688 mmHg 36%
    08:00 +10°C° 0 mm 2 mps 688 mmHg 32%
    09:00 +13°C° 0 mm 2 mps 689 mmHg 28%
    10:00 +15°C° 0 mm 2 mps 689 mmHg 24%
    11:00 +16°C° 0 mm 3 mps 689 mmHg 23%
    12:00 +17°C° 0 mm 3 mps 689 mmHg 21%
    13:00 +18°C° 0 mm 3 mps 689 mmHg 19%
    14:00 +18°C° 0 mm 3 mps 689 mmHg 20%
    15:00 +18°C° 0 mm 3 mps 688 mmHg 22%
    16:00 +18°C° 0 mm 3 mps 688 mmHg 24%
    17:00 +17°C° 0 mm 2 mps 688 mmHg 28%
    18:00 +15°C° 0 mm 2 mps 688 mmHg 32%
    19:00 +14°C° 0 mm 1 mps 687 mmHg 36%
    20:00 +13°C° 0 mm 1 mps 687 mmHg 37%
    21:00 +13°C° 0 mm 1 mps 688 mmHg 37%
    22:00 +12°C° 0 mm 1 mps 688 mmHg 38%
    23:00 +12°C° 0 mm 1 mps 688 mmHg 38%

    Tomorrow, 26 November, Sunday

    Time Temperature Precipitation Wind Pressure Humidity
    00:00 +12°C° 0 mm 1 mps 688 mmHg 38%
    01:00 +11°C° 0 mm 1 mps 687 mmHg 38%
    02:00 +11°C° 0 mm 1 mps 687 mmHg 38%
    03:00 +11°C° 0 mm 1 mps 687 mmHg 39%
    04:00 +10°C° 0 mm 1 mps 687 mmHg 39%
    05:00 +10°C° 0 mm 1 mps 687 mmHg 39%
    06:00 +10°C° 0 mm 1 mps 687 mmHg 39%
    07:00 +10°C° 0 mm 1 mps 687 mmHg 39%
    08:00 +11°C° 0 mm 1 mps 687 mmHg 35%
    09:00 +13°C° 0 mm 1 mps 688 mmHg 31%
    10:00 +15°C° 0 mm 1 mps 689 mmHg 27%
    11:00 +15°C° 0 mm 2 mps 689 mmHg 29%
    12:00 +15°C° 0 mm 2 mps 689 mmHg 30%
    13:00 +16°C° 0 mm 3 mps 688 mmHg 31%
    14:00 +14°C° 0 mm 3 mps 688 mmHg 35%
    15:00 +14°C° 0 mm 3 mps 688 mmHg 39%
    16:00 +13°C° 0 mm 3 mps 688 mmHg 42%
    17:00 +12°C° 0 mm 3 mps 688 mmHg 50%
    18:00 +11°C° 0 mm 3 mps 688 mmHg 57%
    19:00 +10°C° 0 mm 3 mps 688 mmHg 64%
    20:00 +10°C° 0.1 mm 4 mps 689 mmHg 70%
    21:00 +8°C° 0.1 mm 5 mps 689 mmHg 75%
    22:00 +8°C° 0.1 mm 6 mps 689 mmHg 80%
    23:00 +7°C° 0 mm 6 mps 689 mmHg 79%

    Day after tomorrow, 27 November, Monday

    Time Temperature Precipitation Wind Pressure Humidity
    00:00 +7°C° 0 mm 6 mps 689 mmHg 78%
    01:00 +5°C° 0 mm 7 mps 689 mmHg 77%
    02:00 +5°C° 0 mm 7 mps 689 mmHg 77%
    03:00 +4°C° 0 mm 7 mps 689 mmHg 76%
    04:00 +4°C° 0 mm 7 mps 689 mmHg 76%
    05:00 +4°C° 0 mm 7 mps 689 mmHg 76%
    06:00 +4°C° 0 mm 7 mps 689 mmHg 76%
    07:00 +2°C° 0 mm 8 mps 690 mmHg 76%
    08:00 +4°C° 0 mm 8 mps 690 mmHg 72%
    09:00 +3°C° 0 mm 9 mps 690 mmHg 69%
    10:00 +5°C° 0 mm 9 mps 691 mmHg 65%
    11:00 +5°C° 0 mm 9 mps 691 mmHg 63%
    12:00 +6°C° 0 mm 9 mps 690 mmHg 60%
    13:00 +6°C° 0 mm 9 mps 690 mmHg 58%
    14:00 +6°C° 0 mm 9 mps 690 mmHg 59%
    15:00 +6°C° 0 mm 9 mps 690 mmHg 59%
    16:00 +6°C° 0 mm 8 mps 689 mmHg 60%
    17:00 +5°C° 0 mm 7 mps 689 mmHg 64%
    18:00 +5°C° 0 mm 6 mps 689 mmHg 69%
    19:00 +5°C° 0 mm 5 mps 689 mmHg 73%
    20:00 +5°C° 0 mm 5 mps 690 mmHg 76%
    21:00 +4°C° 0 mm 4 mps 690 mmHg 78%
    22:00 +4°C° 0 mm 3 mps 690 mmHg 81%
    23:00 +4°C° 0 mm 3 mps 689 mmHg 81%

    28 November, Tuesday

    Time Temperature Precipitation Wind Pressure Humidity
    00:00 +3°C° 0 mm 3 mps 689 mmHg 82%
    01:00 +4°C° 0 mm 2 mps 689 mmHg 82%
    02:00 +4°C° 0 mm 2 mps 688 mmHg 81%
    03:00 +4°C° 0 mm 2 mps 688 mmHg 79%
    04:00 +4°C° 0 mm 2 mps 688 mmHg 77%
    05:00 +4°C° 0 mm 2 mps 688 mmHg 76%
    06:00 +4°C° 0 mm 2 mps 687 mmHg 75%
    07:00 +3°C° 0 mm 2 mps 687 mmHg 74%
    08:00 +5°C° 0 mm 2 mps 688 mmHg 69%
    09:00 +5°C° 0 mm 3 mps 688 mmHg 64%
    10:00 +8°C° 0 mm 3 mps 688 mmHg 59%
    11:00 +8°C° 0 mm 4 mps 688 mmHg 54%
    12:00 +9°C° 0 mm 5 mps 687 mmHg 50%
    13:00 +10°C° 0 mm 6 mps 687 mmHg 46%
    14:00 +12°C° 0 mm 5 mps 687 mmHg 46%
    15:00 +12°C° 0 mm 5 mps 686 mmHg 46%
    16:00 +12°C° 0 mm 5 mps 686 mmHg 46%
    17:00 +9°C° 0 mm 5 mps 685 mmHg 52%
    18:00 +8°C° 0 mm 4 mps 685 mmHg 59%
    19:00 +8°C° 0 mm 3 mps 685 mmHg 65%
    20:00 +6°C° 0 mm 4 mps 685 mmHg 68%
    21:00 +6°C° 0 mm 4 mps 685 mmHg 71%
    22:00 +6°C° 0 mm 4 mps 685 mmHg 73%
    23:00 +6°C° 0 mm 4 mps 684 mmHg 74%

    29 November, Wednesday

    Time Temperature Precipitation Wind Pressure Humidity
    00:00 +5°C° 0 mm 4 mps 684 mmHg 74%
    01:00 +5°C° 0 mm 4 mps 684 mmHg 75%
    02:00 +5°C° 0 mm 4 mps 683 mmHg 74%
    03:00 +5°C° 0 mm 4 mps 683 mmHg 73%
    04:00 +6°C° 0 mm 4 mps 683 mmHg 73%
    05:00 +6°C° 0 mm 4 mps 683 mmHg 72%
    06:00 +6°C° 0 mm 4 mps 683 mmHg 72%
    07:00 +6°C° 0 mm 4 mps 682 mmHg 72%
    08:00 +7°C° 0 mm 5 mps 683 mmHg 67%
    09:00 +9°C° 0 mm 6 mps 683 mmHg 61%
    10:00 +11°C° 0 mm 6 mps 683 mmHg 55%
    11:00 +12°C° 0 mm 7 mps 683 mmHg 52%
    12:00 +13°C° 0 mm 8 mps 683 mmHg 48%
    13:00 +16°C° 0 mm 9 mps 683 mmHg 45%
    14:00 +15°C° 0 mm 9 mps 682 mmHg 44%
    15:00 +15°C° 0 mm 9 mps 682 mmHg 44%
    16:00 +15°C° 0 mm 9 mps 681 mmHg 44%
    17:00 +12°C° 0 mm 8 mps 681 mmHg 49%
    18:00 +11°C° 0 mm 7 mps 681 mmHg 54%
    19:00 +10°C° 0 mm 6 mps 681 mmHg 59%
    20:00 +10°C° 0 mm 6 mps 681 mmHg 59%
    21:00 +9°C° 0 mm 6 mps 681 mmHg 59%
    22:00 +9°C° 0 mm 6 mps 681 mmHg 59%
    23:00 +9°C° 0 mm 6 mps 681 mmHg 59%

    30 November, Thursday

    Time Temperature Precipitation Wind Pressure Humidity
    00:00 +9°C° 0 mm 6 mps 681 mmHg 60%
    01:00 +9°C° 0 mm 6 mps 681 mmHg 60%
    02:00 +9°C° 0 mm 6 mps 680 mmHg 60%
    03:00 +9°C° 0 mm 5 mps 680 mmHg 59%
    04:00 +9°C° 0 mm 5 mps 680 mmHg 59%
    05:00 +9°C° 0 mm 5 mps 680 mmHg 59%
    06:00 +8°C° 0 mm 4 mps 680 mmHg 59%
    07:00 +8°C° 0 mm 4 mps 680 mmHg 58%
    08:00 +10°C° 0 mm 5 mps 680 mmHg 54%
    09:00 +12°C° 0 mm 5 mps 680 mmHg 49%
    10:00 +14°C° 0 mm 6 mps 681 mmHg 44%
    11:00 +15°C° 0 mm 7 mps 680 mmHg 42%
    12:00 +16°C° 0 mm 8 mps 680 mmHg 39%
    13:00 +17°C° 0 mm 9 mps 680 mmHg 37%
    14:00 +17°C° 0 mm 9 mps 680 mmHg 37%
    15:00 +17°C° 0 mm 8 mps 680 mmHg 38%
    16:00 +16°C° 0 mm 8 mps 679 mmHg 39%
    17:00 +15°C° 0 mm 6 mps 680 mmHg 44%
    18:00 +14°C° 0 mm 5 mps 680 mmHg 48%
    19:00 +12°C° 0 mm 4 mps 680 mmHg 53%
    20:00 +12°C° 0.1 mm 3 mps 680 mmHg 55%
    21:00 +12°C° 0.1 mm 3 mps 680 mmHg 57%
    22:00 +12°C° 0.1 mm 3 mps 681 mmHg 59%
    23:00 +11°C° 0.3 mm 3 mps 680 mmHg 65%
    Show more